Notices

What's New in latest Release from April 7th, 2021:

- Updated Glossary, including Speed of Maximum Gust, and Total Hourly Precipitation

- Updated national and regional climate services offices contacts and prices information

- Addition of station inventory lists for 1981-2010, 1971-2000, and 1961-1990 Normals.

If you haven't already, please take our survey and provide feedback about our website: https://eccc.sondage-survey.ca/f/LanguageSelection.aspx?s=442ca660-fcf1-47c0-95a9-59707d6fd709

Hourly Data Report for January 01, 2012

HALIFAX STANFIELD INT'L A
NOVA SCOTIA

44°52'48.060" N
63°30'00.050" W
145.40 m
8202250
71395
YHZ

Download Data

Hourly Data (January 2012)
Hourly Data Report for January 1, 2012
TIME
LST
Temp Definition
°C
Dew Point Definition
°C
Rel Hum Definition
%
Precip. Amount Definition
mm

Wind Dir Definition
10's deg

Wind Spd Definition
km/h
Visibility Definition
km
Stn Press Definition
kPa
Hmdx Definition


Wind Chill Definition


Weather Definition


00:00 8.6 8.6 100   16 7 0.4 98.72     Rain Showers,Fog
01:00 7.9 7.9 100     0 0.4 98.54     Rain Showers,Fog
02:00 7.7 7.7 100     0 0.8 98.46     Rain Showers,Fog
03:00 7.9 7.9 100   33 15 0.4 98.40     Rain Showers,Fog
04:00 7.4 7.4 100   33 19 0.4 98.35     Rain Showers,Fog
05:00 6.4 6.4 100   33 28 2.4 98.36     Rain Showers,Fog
06:00 4.0 4.0 100   33 28 4.0 98.40     Fog
07:00 2.7 2.6 99   33 33 1.2 98.51     Fog
08:00 1.7 1.5 99   32 39 9.7 98.66     Fog
09:00 1.1 0.8 98   32 41 6.4 98.78     Fog
10:00 0.9 0.5 97   32 41 16.1 98.92     Cloudy
11:00 0.9 0.4 96   32 37 24.1 98.99     Cloudy
12:00 1.5 0.4 92   31 41 24.1 99.03     Cloudy
13:00 1.7 -0.3 87   32 48 24.1 99.03     Mostly Cloudy
14:00 1.4 -0.6 87   32 44 24.1 99.12     Cloudy
15:00 0.6 -0.7 91   33 37 2.4 99.28     Snow
16:00 0.4 -1.1 90   32 26 16.1 99.45     Snow
17:00 0.3 -1.6 87   32 20 24.1 99.56     Mostly Cloudy
18:00 -0.1 -1.8 88   31 20 24.1 99.60   -5 Snow Showers
19:00 -0.5 -1.7 92   30 11 16.1 99.67   -4 Snow Showers
20:00 -0.7 -1.6 94   32 9 16.1 99.69   -4 Snow Showers
21:00 -0.8 -1.5 95   32 9 19.3 99.72   -4 Snow Showers
22:00 -1.2 -1.6 97     0 19.3 99.67     Snow Showers
23:00 -0.8 -1.4 96   19 7 24.1 99.71   -3 Snow Showers

Notes on Data Quality.

Legend

  • E = Estimated
  • M = Missing
  • NA = Not Available*
  • [empty] = Indicates an unobserved value
Date modified: